ES'HAIL 2 (43700 NORAD) Tracking and Keplerian Element Data

This shows tracking and keplerian element data for the satellite.

Feedback or suggestion? Click here.




ElementValue
Catalog43700
NameES'HAIL 2
Epoch Orbit981
Epoch Day212.92229289
Epoch Year2021
RAAN80.9099
Inclination0.0225
Eccentricity0.0001786
Argument of Perigee99.0515
Mean Anonmoly127.5815
Mean Motion1.00270245
Decay Rate1.44E-06
L11 43700U 18090A 21212.92229289 .00000144 00000-0 00000-0 0 9992
L22 43700 0.0225 80.9099 0001786 99.0515 127.5815 1.00270245 9819

Live tracking and technical data element details for ES'HAIL 2 (NORAD 43700). ES'HAIL 2 can be tracked NOW for your location showing map with azimuth and elevation plus other details from your city location.

Track the satellite on the map from your city or location and see movement details for azimuth, elevation, latitude, longitude, range, height, and movement on the map or in text.







IsCatalogInMostPopularTable: catalog: 43700, numindb: 8337
Update: records affected: 1



GetName: 43700 ES'HAIL 2

Hit Count: updated at: Mon, 02 Aug 2021 03:23:05 GMT